Theta_e
333 341 347 348 347 347 347 345 343 342 342 342 341 341 341 340 341 339 340 342 343 344 343 341 339 338 338 338 337 337 337 337 337 337 337 339 338 336 338 336 337 334 338
335 341 345 348 348 347 348 346 344 343 340 341 339 339 339 339 338 338 340 342 344 342 344 341 339 337 336 336 335 335 335 335 335 334 333 336 337 335 335 336 337 335 336
336 341 345 346 348 348 348 347 345 343 340 339 338 338 339 338 337 337 336 341 342 341 341 339 338 337 337 336 335 334 333 334 333 332 333 330 331 335 334 334 334 335 333
338 340 343 344 347 348 347 346 345 342 343 342 339 339 339 339 338 338 337 339 341 338 339 338 337 336 337 336 335 334 333 333 332 331 330 330 330 334 334 333 332 332 332
338 339 342 343 347 347 347 346 344 343 343 343 342 340 339 338 337 336 336 339 341 338 339 337 337 336 336 335 334 334 333 332 329 330 331 330 331 332 334 332 331 331 331
336 337 342 344 347 347 346 345 344 344 341 344 343 340 339 336 334 335 336 338 339 338 339 338 336 335 335 334 334 333 332 330 329 330 330 330 330 333 333 332 331 331 332
333 335 342 343 345 346 346 345 344 343 338 346 343 340 337 335 334 334 335 337 338 337 336 337 337 335 334 334 333 332 331 328 329 329 328 329 331 333 333 332 331 331 331
332 334 340 337 340 342 343 343 343 342 338 340 341 338 337 334 334 334 334 335 336 336 335 336 336 335 333 332 331 330 329 327 327 329 329 331 333 333 333 332 332 332 332
332 333 337 340 339 335 338 338 339 339 337 338 340 338 337 335 332 335 335 334 335 334 334 334 335 334 333 331 330 329 327 325 328 328 328 329 333 333 332 332 333 333 332
330 332 333 336 338 339 339 332 333 334 334 333 335 333 331 330 332 331 330 334 334 334 333 332 332 333 333 330 328 326 324 324 327 328 329 327 330 331 332 333 333 332 331
328 330 331 333 335 335 335 331 330 330 330 330 330 327 326 329 331 330 327 330 333 332 332 330 329 328 329 328 326 323 322 325 326 327 328 329 331 331 331 331 331 332 331
325 326 329 330 332 332 333 332 334 333 333 332 331 331 329 329 329 328 325 326 327 327 329 328 326 322 320 323 323 321 322 322 323 323 323 326 327 329 330 330 329 331 330
326 327 327 328 330 331 331 331 331 332 331 330 329 328 328 327 326 328 327 327 326 320 324 322 321 321 320 321 321 321 320 320 320 320 319 322 325 327 328 329 329 330 330
325 326 327 328 328 329 330 329 330 329 329 328 327 326 325 324 324 325 326 325 323 322 321 320 321 320 320 319 319 319 320 320 320 320 319 317 321 325 327 327 327 327 328
323 325 326 327 328 329 328 329 329 328 327 327 326 325 325 323 322 322 323 322 321 319 319 319 320 320 319 319 319 319 319 319 319 320 321 315 318 322 325 327 325 325 328
324 324 326 326 327 329 328 328 327 327 327 327 325 325 324 323 322 321 320 319 318 318 318 319 320 320 319 319 319 319 319 319 319 319 320 321 318 321 323 325 325 326 328
323 325 325 326 326 327 328 327 326 327 327 326 326 324 324 323 323 322 320 318 318 317 318 319 318 319 318 318 318 318 318 318 319 319 319 320 320 318 323 323 323 326 326
323 322 325 326 326 326 327 327 325 326 325 326 325 325 324 324 324 323 321 320 319 318 318 319 318 317 318 317 318 318 318 318 318 318 318 319 319 320 321 323 322 323 325
324 323 323 325 325 326 326 326 327 326 326 326 326 325 324 324 324 324 323 323 321 319 319 319 318 317 317 317 316 317 317 316 316 317 317 317 318 318 320 319 317 318 323
325 325 324 324 325 325 326 326 325 325 326 326 326 326 325 324 323 323 323 322 321 320 319 318 318 316 317 317 314 315 317 315 313 317 317 316 316 316 317 315 315 315 320
324 325 324 323 324 323 323 322 322 321 322 323 325 325 325 325 323 323 323 322 320 320 320 318 317 316 315 315 316 316 313 312 312 314 315 315 314 314 315 314 312 313 315
321 324 325 325 325 324 323 323 323 323 323 324 325 325 325 324 324 324 323 322 320 320 318 317 315 314 315 315 315 315 310 310 312 311 312 312 312 310 310 309 309 309 309
323 321 324 325 325 325 325 325 323 323 321 322 323 323 323 324 324 324 324 324 321 321 319 318 316 315 315 314 317 315 306 307 309 310 309 309 309 307 308 308 307 306 308
322 325 324 326 325 325 326 324 323 322 321 323 324 325 324 324 324 323 324 323 322 320 320 319 317 318 317 315 314 315 313 310 309 308 308 309 307 306 307 307 305 304 304
317 321 324 324 325 325 325 326 324 323 324 325 325 324 325 324 324 323 324 322 321 320 321 320 317 317 317 318 317 314 314 312 313 311 309 307 306 307 307 305 305 302 301
311 318 322 323 323 325 324 325 324 323 324 323 323 323 324 324 323 323 323 323 322 321 320 320 319 318 318 317 318 317 315 310 311 310 308 308 306 306 306 306 304 302 301
Wind_Speed
5 6 6 10 10 12 15 15 13 13 14 14 15 15 16 16 15 16 15 15 14 16 16 19 18 18 17 18 19 20 19 19 20 22 20 20 21 21 20 17 15 18 20
10 8 7 9 10 12 14 15 13 11 13 13 14 14 16 15 16 15 14 12 15 17 17 19 18 17 18 18 19 19 19 19 18 17 15 16 18 20 21 19 18 18 19
11 8 7 8 11 13 12 14 14 10 11 12 13 14 14 14 14 15 15 12 15 16 16 17 17 17 18 19 18 19 18 18 18 17 14 13 15 18 19 19 19 18 18
10 8 7 9 12 13 13 11 13 11 10 14 13 14 13 14 13 14 14 10 14 15 14 16 16 17 17 18 18 17 17 17 16 14 11 11 13 18 18 18 17 17 17
10 7 7 10 13 13 13 12 12 13 10 10 16 14 13 13 13 12 13 11 14 14 13 15 16 16 17 16 16 16 17 16 14 12 12 11 11 14 16 16 15 15 15
9 8 8 10 13 14 13 12 12 11 9 10 16 15 13 12 12 11 12 11 13 13 14 13 15 15 15 15 16 15 15 14 11 11 12 10 8 14 15 15 14 13 12
9 7 8 9 12 13 13 12 10 11 10 12 15 15 13 12 12 11 11 11 12 13 12 12 13 13 14 14 14 14 13 12 9 9 8 7 8 13 13 13 12 12 12
11 8 7 8 10 11 12 11 10 9 11 9 14 13 12 11 12 10 11 10 11 11 12 11 11 13 13 12 12 12 11 10 8 8 7 7 9 12 11 10 11 10 10
9 9 7 7 9 10 9 9 9 9 10 11 13 11 10 10 10 9 8 10 10 10 11 11 10 11 11 11 11 11 10 9 8 6 6 4 10 10 10 11 11 10 10
7 8 9 7 7 8 8 8 8 8 10 11 9 10 8 8 10 9 6 8 10 10 10 10 10 9 10 10 10 9 9 8 6 5 4 5 8 9 9 12 13 10 10
6 7 7 8 8 7 7 6 8 6 8 8 8 9 7 5 7 7 6 7 8 8 9 10 10 10 9 9 8 7 6 3 4 3 3 9 9 9 9 10 11 10 11
13 9 8 9 9 8 6 7 6 6 6 6 6 7 5 5 5 5 5 7 8 8 8 10 10 9 5 3 3 4 3 3 2 2 2 7 7 7 8 8 9 10 11
13 10 10 9 9 9 7 6 4 4 4 5 7 6 5 4 3 3 3 3 3 4 3 4 4 3 4 3 2 2 3 2 1 0 1 5 6 6 6 7 7 9 11
14 14 10 9 9 9 6 7 7 6 5 5 6 7 6 4 4 4 3 3 3 2 3 3 2 3 4 3 3 3 2 2 1 1 1 4 4 5 6 5 6 8 8
14 14 13 11 10 10 9 7 8 7 6 7 7 8 7 6 6 5 4 4 3 3 3 3 2 3 3 3 3 3 3 3 3 2 1 3 4 3 4 4 4 5 6
14 14 13 13 11 11 10 11 8 7 8 7 7 7 9 7 6 6 5 5 4 4 3 3 3 3 3 3 3 3 3 3 3 4 1 2 3 2 1 2 3 5 6
13 12 14 14 13 13 14 11 9 9 7 8 7 10 10 9 8 7 6 5 5 4 5 4 3 3 3 3 4 3 3 3 3 4 2 2 2 3 1 1 1 5 5
12 15 14 12 14 14 13 11 9 9 9 8 8 8 11 11 10 8 6 6 6 5 5 4 4 4 4 4 3 3 3 3 4 4 3 2 2 2 2 1 3 4 3
15 14 14 16 16 16 13 10 10 11 9 8 8 8 11 11 11 8 7 7 7 6 6 5 4 4 4 4 4 3 3 3 3 2 3 4 4 4 3 2 3 4 3
14 14 14 13 15 15 11 9 7 8 8 7 9 9 12 10 12 10 7 8 7 6 6 6 6 5 4 4 3 4 3 2 2 3 4 3 4 4 4 3 2 2 5
14 15 17 16 17 12 11 11 11 12 11 10 9 13 13 12 13 11 8 9 8 8 9 9 5 7 5 3 2 2 2 1 2 2 2 3 4 4 5 3 2 1 3
18 19 17 19 17 16 12 11 8 10 10 10 9 10 13 13 13 11 11 10 10 8 9 9 8 4 4 6 3 1 2 1 3 1 1 3 5 3 3 4 4 3 2
18 20 21 20 20 18 17 10 7 4 3 8 10 10 11 14 13 13 13 11 10 10 8 9 10 10 6 5 10 2 1 4 1 2 4 3 5 4 4 5 5 4 5
21 19 19 20 20 18 19 15 19 14 13 11 11 10 10 14 14 14 14 13 12 9 10 10 9 9 8 7 3 6 2 3 3 1 2 4 5 6 6 4 4 4 5
18 18 18 19 19 19 19 19 16 16 12 9 9 12 13 11 15 15 15 14 13 10 12 12 11 11 9 7 7 3 6 3 3 4 5 3 3 5 6 6 6 5 6
13 16 16 18 20 19 20 22 20 20 17 12 13 12 11 12 11 15 15 14 14 12 12 11 12 13 11 10 8 8 7 4 5 5 5 4 5 4 6 6 7 7 7
Wind_Direction
177 163 157 142 138 129 113 105 104 103 103 103 100 97 97 95 97 96 97 94 96 85 95 89 87 81 79 80 78 76 73 68 64 63 63 61 70 67 63 65 61 62 64
151 161 160 142 139 133 122 121 110 109 106 104 100 101 102 101 95 94 95 95 88 82 92 91 87 82 82 87 82 78 76 71 66 64 60 63 66 65 58 55 55 60 61
152 155 148 140 136 131 126 124 121 117 116 111 107 105 105 103 102 100 102 94 95 91 89 93 90 87 88 86 80 78 78 71 61 58 62 74 71 68 67 61 54 53 60
149 146 144 144 136 137 130 127 124 124 130 124 110 102 103 102 103 106 110 108 99 100 98 98 92 91 88 86 83 82 77 71 65 61 71 69 74 68 65 64 61 57 53
145 144 145 142 140 138 137 133 128 132 131 144 120 114 108 107 106 111 115 118 103 99 100 98 94 91 91 90 87 85 80 73 62 65 67 65 65 70 71 67 63 58 50
150 150 152 151 143 140 139 136 133 138 145 139 129 123 113 111 114 115 119 120 104 98 94 98 96 95 95 91 89 87 82 74 68 67 66 56 55 67 65 64 61 60 58
154 157 154 151 143 143 140 139 143 137 136 128 118 115 124 124 121 122 121 120 110 98 101 103 101 99 97 97 93 87 83 73 73 69 68 75 71 63 63 59 57 51 52
154 158 155 151 144 141 141 142 141 143 153 122 114 124 127 131 122 124 127 125 113 112 106 102 109 104 100 98 96 88 82 75 73 68 55 61 65 64 60 55 50 41 37
156 157 161 153 154 142 144 144 145 161 158 147 131 133 131 126 132 119 121 134 129 125 110 103 105 111 107 99 96 87 77 72 79 67 54 39 47 52 50 39 27 32 53
167 166 162 160 159 155 157 146 146 155 147 166 134 129 138 130 121 121 113 126 129 125 119 107 99 110 111 100 95 90 81 76 74 67 49 52 50 42 42 33 31 32 56
181 182 174 167 166 161 161 161 148 151 130 126 123 121 118 128 129 132 123 110 112 116 124 112 100 90 89 95 91 85 85 76 75 61 42 11 24 29 31 28 34 45 53
196 196 188 178 174 165 165 159 163 155 151 153 149 150 142 141 139 132 121 115 116 123 119 117 99 94 102 112 104 86 88 93 78 61 34 11 18 23 26 25 25 42 45
201 198 194 182 177 171 167 169 164 172 160 162 163 158 152 145 145 150 132 138 135 109 112 109 110 106 127 136 120 117 118 121 133 55 360 358 11 13 25 24 16 28 39
195 201 193 186 178 174 163 178 176 177 177 174 179 163 160 162 170 171 172 168 158 154 149 137 121 129 138 136 146 154 153 181 208 229 266 322 340 6 19 22 18 19 31
193 203 189 183 182 181 172 185 188 181 192 182 182 178 177 177 180 181 186 180 177 173 183 163 164 161 168 172 178 201 198 215 220 235 258 312 299 350 13 26 22 12 50
197 197 183 190 184 186 188 191 194 188 192 191 187 192 189 187 184 192 188 194 190 194 183 187 190 183 198 211 217 219 229 238 238 249 257 260 295 280 346 47 29 22 65
201 189 189 187 185 184 194 196 201 196 185 197 196 195 196 194 196 195 195 200 201 194 190 195 194 193 201 216 239 233 245 250 257 256 248 244 244 208 164 85 71 29 40
195 191 190 189 191 189 192 198 201 201 196 197 192 197 201 201 200 203 203 208 197 192 198 202 197 207 221 223 239 231 246 238 243 249 238 228 210 187 136 98 30 11 59
197 195 193 190 192 194 194 193 203 203 202 199 192 202 206 205 204 206 210 215 197 194 201 204 203 212 218 222 236 248 241 245 258 248 238 218 198 179 165 120 74 39 27
198 197 196 194 196 194 192 187 195 202 205 200 202 204 205 206 204 205 210 214 197 197 207 205 209 207 226 232 240 246 221 245 269 252 242 220 185 176 170 154 132 81 64
199 197 196 191 197 185 189 192 203 210 211 211 210 209 205 206 202 204 209 209 197 204 209 204 198 213 224 209 230 220 238 237 274 256 214 194 177 178 171 161 155 160 87
202 205 202 203 194 193 194 197 203 196 214 212 208 209 209 206 203 202 206 206 201 203 206 198 192 189 222 190 204 198 263 211 222 223 164 174 178 164 166 181 165 171 148
204 205 205 201 198 197 197 187 188 163 192 199 207 209 210 206 204 201 208 207 200 201 206 202 199 200 212 198 211 190 148 227 241 168 200 192 186 190 187 186 187 190 191
207 209 209 203 199 199 191 190 195 204 207 209 208 209 205 204 204 203 207 205 202 200 207 204 198 203 202 212 200 231 215 152 213 262 222 216 202 210 204 198 188 185 194
202 205 203 203 200 197 193 199 198 207 214 204 201 200 201 204 207 207 207 203 204 203 210 204 194 202 202 209 208 168 218 206 224 228 260 206 230 220 212 202 199 192 192
206 200 203 200 203 197 196 201 202 206 208 202 202 202 206 213 209 213 209 207 207 207 205 203 203 204 205 208 205 204 200 173 192 200 221 207 214 213 213 207 204 196 198